This demonstration page uses our WeatherBlox Daily Observations layout. Learn more.

39.92423, -83.80882

Hourly Observations for June 23, 2019

Temp ( °F °C ) Dew Point ( °F °C ) Humidity (%) Winds ( mph kmh ) Pressure ( in mb ) Visibility ( mi km ) Precip ( " mm )
12:56 am 00:56 Clear 61 16.1 60 15.6 97 97 Calm 30.11 1020 10 16.0934 0 0
1:56 am 01:56 Clear 59 15 57 13.9 93 93 E 5 7 30.11 1020 10 16.0934 0 0
2:56 am 02:56 Clear 57 13.9 57 13.9 100 100 Calm 30.1 1019 10 16.0934 0 0
3:56 am 03:56 Clear 57 13.9 57 13.9 100 100 Calm 30.09 1019 10 16.0934 0 0
4:56 am 04:56 Clear 56 13.3 56 13.3 100 100 E 5 7 30.09 1019 10 16.0934 0 0
5:56 am 05:56 Clear 55 12.8 55 12.8 100 100 E 5 7 30.08 1019 10 16.0934 0 0
6:56 am 06:56 Sunny 59 15 56 13.3 90 90 E 6 9 30.07 1018 10 16.0934 0 0
7:56 am 07:56 Sunny 64 17.8 57 13.9 78 78 E 7 11 30.09 1019 10 16.0934 0 0
8:56 am 08:56 Sunny 68 20 57 13.9 68 68 ESE 9 15 30.08 1019 10 16.0934 0 0
9:56 am 09:56 Sunny 72 22.2 56 13.3 57 57 SE 12 19 30.06 1018 10 16.0934 0 0
10:56 am 10:56 Sunny 74 23.3 52 11.1 46 46 SE 12 19 30.03 1017 10 16.0934 0 0
11:56 am 11:56 Sunny 75 23.9 54 12.2 48 48 SE 14 22 30.01 1016 10 16.0934 0 0
12:56 pm 12:56 Sunny 76 24.4 56 13.3 50 50 SSE 8 13 30.02 1017 10 16.0934 0 0
1:56 pm 13:56 Sunny 77 25 57 13.9 50 50 SSE 10 17 30 1016 10 16.0934 0 0
3:56 pm 15:56 Sunny 80 26.7 63 17.2 56 56 S 7 11 29.96 1014 10 16.0934 0 0
4:56 pm 16:56 Sunny 81 27.2 66 18.9 61 61 S 7 11 29.93 1014 10 16.0934 0 0
5:56 pm 17:56 Partly Cloudy 80 26.7 67 19.4 64 64 SSW 6 9 29.93 1014 10 16.0934 0 0
6:56 pm 18:56 Partly Cloudy 79 26.1 69 20.6 72 72 SSW 6 9 29.92 1013 10 16.0934 0 0
7:26 pm 19:26 Cloudy with Nearby Thunderstorms 77 25 70 21 79 79 W 14 22 29.88 1012 9 14.48406 0 0.0254
7:56 pm 19:56 Mostly Cloudy with Light Rain 72 22.2 70 21.1 94 94 S 7 11 29.9 1012 10 16.0934 0.01 0.254
8:56 pm 20:56 Sunny 69 20.6 68 20 96 96 SSE 7 11 29.87 1011 10 16.0934 0.03 0.762
9:56 pm 21:56 Clear 69 20.6 66 18.9 90 90 SSW 5 7 29.86 1011 10 16.0934 0 0
10:56 pm 22:56 Clear 69 20.6 67 19.4 93 93 S 8 13 29.87 1011 10 16.0934 0 0
11:56 pm 23:56 Clear 68 20 68 20 100 100 S 10 17 29.85 1011 10 16.0934 0 0

Powered by AerisWeather